Theta_e
319 320 321 319 317 317 316 316 317 316 316 319 316 315 321 321 319 325 327 324 323 321 317 315 313 312 311 311 311 312 312 312 312 311 311 310 310 309 309 308 308 308 309 309 309 309 308 308 308 308 308 308 308 308 308 308 309 310 311 311 311 311 311 311 311 311 311 311 311 311 311 311 311 310 310 308 308 309 310 311 313 315 317 318 320 324 326
319 320 322 321 319 322 323 320 320 320 320 322 323 324 326 325 323 326 326 324 322 319 316 314 312 310 310 310 310 311 311 312 311 311 310 310 309 310 309 308 308 308 309 309 308 308 308 308 308 308 308 308 307 308 308 307 308 309 310 310 310 310 310 310 310 310 310 311 311 310 310 310 310 310 309 308 308 307 308 309 309 311 313 314 315 318 322
322 322 322 321 320 323 326 325 324 325 326 326 328 328 328 327 326 326 323 321 319 316 313 311 309 309 309 309 309 310 310 311 311 310 310 310 310 310 309 309 308 308 308 308 308 308 308 307 307 308 308 307 307 307 307 307 307 308 309 309 309 309 309 309 309 309 309 310 310 310 310 309 309 309 309 308 307 307 307 307 307 308 309 310 310 312 317
325 324 321 321 322 323 324 324 325 325 326 327 327 327 327 327 325 322 320 318 315 312 310 309 308 308 308 308 309 310 309 310 310 310 309 309 308 308 308 308 308 307 307 307 307 307 307 307 307 307 307 307 307 307 307 306 306 307 308 308 308 309 309 308 308 309 309 309 309 309 309 309 309 308 308 308 307 306 306 306 306 306 307 307 307 308 311
325 325 322 322 321 321 322 321 320 322 323 325 325 324 325 324 322 321 320 316 312 309 309 308 308 308 307 308 308 308 308 309 308 308 308 307 307 307 307 307 307 306 307 307 306 306 306 306 306 306 307 307 306 307 307 306 306 306 307 307 307 308 308 307 307 307 307 308 308 308 308 308 308 308 307 307 307 306 306 305 304 305 305 306 305 305 307
324 324 323 323 321 321 320 317 317 320 322 323 323 322 321 320 318 318 317 313 310 309 309 308 308 307 307 307 307 307 308 307 307 307 307 306 306 306 306 306 306 306 306 305 305 305 305 305 305 306 306 306 306 307 306 306 305 306 306 306 306 307 306 307 306 306 306 307 307 307 307 307 307 307 307 307 306 306 306 305 304 303 304 304 304 304 304
323 323 324 326 326 321 317 315 316 318 319 319 319 318 318 318 316 314 312 311 310 310 309 308 307 306 305 305 305 306 306 306 306 306 305 306 306 305 305 306 306 305 305 305 305 304 304 305 305 305 305 305 306 306 306 305 305 305 306 306 306 306 305 306 305 305 306 306 306 306 306 306 307 306 306 306 306 306 306 305 305 304 303 303 303 302 302
322 322 323 325 323 317 315 316 316 316 317 316 317 316 315 315 315 313 311 311 310 309 307 306 305 305 304 304 304 304 304 305 305 305 304 305 305 305 305 305 306 306 306 304 303 303 304 304 305 305 305 305 305 305 305 305 305 305 305 305 305 305 305 305 305 305 305 305 305 306 306 306 306 306 306 306 306 305 306 306 305 304 304 303 302 302 302
321 322 321 320 318 317 317 316 316 316 317 318 318 316 313 313 313 312 310 309 308 307 306 305 304 304 304 304 304 304 304 304 304 304 304 304 305 305 305 305 305 305 305 304 303 303 304 304 304 304 305 305 305 305 304 304 304 304 304 304 304 304 304 304 304 304 305 305 305 305 305 305 305 305 305 305 305 305 305 305 305 305 304 304 303 302 301
319 321 321 319 321 321 319 316 315 316 317 317 317 316 313 312 311 310 308 308 307 306 305 305 304 305 305 305 304 303 303 304 305 305 305 305 305 304 305 305 304 304 303 303 303 303 303 304 304 304 304 304 305 305 304 304 304 304 304 303 303 303 303 304 304 304 304 304 304 304 304 304 304 304 304 305 305 305 305 305 305 305 305 304 304 303 302
318 319 320 321 322 321 318 316 316 315 316 317 316 318 316 312 309 309 308 307 306 306 305 305 305 307 307 305 303 303 303 304 305 305 305 304 304 303 303 303 303 303 303 302 303 303 303 303 303 303 303 304 304 304 304 304 304 303 303 303 303 303 303 303 303 303 303 303 304 304 304 304 303 304 304 304 304 304 304 304 304 304 304 304 304 303 302
319 319 319 319 319 318 317 317 315 315 315 316 318 320 318 311 309 309 308 307 307 306 305 305 307 309 308 305 303 303 303 304 304 305 305 304 303 302 302 302 302 302 302 303 302 302 302 303 302 302 303 303 303 303 303 303 303 303 302 302 302 302 302 302 303 303 303 303 303 303 303 303 303 303 303 303 303 303 303 303 303 303 303 303 303 303 303
318 318 317 317 317 317 316 316 315 314 315 317 319 319 315 310 309 309 308 308 308 307 307 308 308 308 307 304 303 303 304 304 304 304 304 303 302 301 301 302 302 301 302 302 302 302 302 302 302 302 302 303 303 303 303 302 302 302 302 302 302 302 302 302 302 302 302 302 302 302 302 302 302 302 302 302 302 303 303 302 302 302 302 302 302 302 302
317 316 316 317 317 316 314 314 314 314 316 317 317 315 311 309 309 308 307 308 308 307 308 308 307 306 305 304 303 304 304 304 304 304 304 303 301 301 300 301 301 302 302 302 302 302 302 302 302 302 302 302 302 302 302 302 301 301 301 301 301 301 301 301 301 302 302 302 302 302 302 302 302 301 301 302 302 302 302 302 302 302 301 301 301 301 301
315 315 316 316 317 315 313 314 314 314 315 315 313 312 310 309 309 308 307 307 307 307 307 306 305 305 304 304 303 303 304 304 304 304 303 302 301 300 299 299 300 301 302 302 302 302 302 302 302 302 302 302 302 302 302 301 301 301 301 301 301 301 301 301 301 301 301 301 301 301 301 301 301 301 301 300 301 301 301 301 301 301 301 301 300 300 300
315 314 316 316 315 314 313 313 314 313 313 313 312 311 310 310 309 307 307 306 306 306 306 305 305 304 304 304 303 303 304 304 304 303 302 300 300 299 299 299 299 300 302 302 301 302 302 302 302 302 302 302 302 302 301 301 301 301 301 300 301 301 300 301 301 301 301 301 301 301 301 300 300 301 300 299 299 300 300 300 301 301 300 300 300 300 299
313 314 313 313 313 312 312 313 313 312 312 312 311 311 310 309 308 308 307 306 306 306 305 305 304 304 304 304 303 303 304 304 303 302 301 300 299 299 299 300 300 300 301 301 301 301 301 301 301 301 301 302 301 301 301 300 300 300 300 300 300 301 300 300 300 300 300 301 301 301 300 300 300 300 300 299 299 299 299 299 300 300 300 299 300 300 299
310 310 310 311 312 312 311 311 311 311 311 311 310 310 310 309 308 308 307 306 306 305 305 305 304 304 304 304 303 303 303 303 302 301 300 299 299 300 300 300 300 301 301 300 300 300 300 300 300 300 300 301 301 301 300 300 300 300 300 300 300 300 300 300 300 300 300 300 300 301 300 300 299 299 299 299 299 298 298 298 298 299 299 299 299 300 299
312 311 310 311 311 311 310 310 310 310 310 310 310 309 309 308 308 307 307 306 306 305 305 305 305 304 304 303 303 303 303 302 301 300 300 300 300 300 301 301 300 300 300 300 300 300 300 299 299 299 299 300 300 301 300 300 300 300 300 300 300 300 300 300 300 300 300 300 300 300 300 300 300 299 299 299 299 298 298 298 298 298 298 298 298 299 299
312 311 309 310 310 309 309 309 309 309 309 309 309 308 308 308 307 307 307 306 306 305 305 304 304 303 303 303 303 302 302 302 301 300 300 299 300 300 301 300 300 300 300 299 300 300 300 299 299 299 299 299 300 301 300 300 300 300 300 300 300 300 300 299 299 299 299 299 300 300 300 300 300 299 299 299 299 298 297 297 297 297 297 297 297 299 300
309 309 309 309 309 308 309 308 308 309 308 308 308 308 307 307 306 306 306 306 306 306 305 305 304 303 303 303 303 302 302 302 301 300 300 299 300 300 300 300 300 300 300 300 300 300 300 299 299 299 299 299 300 301 300 300 300 300 300 300 300 300 300 299 299 299 299 299 299 299 299 300 300 299 299 298 299 298 297 295 295 295 296 296 296 297 299
309 309 309 309 309 309 308 308 308 308 307 307 307 307 306 306 305 305 305 305 306 305 304 305 305 303 302 303 303 302 302 301 301 300 300 299 300 300 300 300 300 300 300 300 300 300 299 299 300 300 300 300 300 300 300 300 300 300 300 300 299 299 300 299 299 299 299 299 299 299 299 299 300 300 299 298 298 298 296 295 295 295 295 294 294 295 296
311 309 308 309 309 308 307 307 307 307 307 307 306 306 306 305 305 306 305 304 304 304 304 304 304 303 303 302 302 302 302 301 300 300 300 300 300 300 300 300 300 299 299 300 300 299 299 299 300 301 300 300 300 301 300 300 300 300 300 300 299 299 299 299 299 299 299 299 299 299 299 299 299 299 299 299 298 298 297 296 295 295 295 294 294 294 294
310 309 309 309 309 307 307 307 306 307 307 307 306 305 306 306 306 306 306 304 304 304 304 304 303 303 302 302 302 302 301 301 300 300 300 300 300 300 300 300 299 299 299 299 299 299 299 300 301 301 300 300 301 301 300 300 300 300 300 300 299 299 299 299 299 299 299 299 299 299 299 299 298 298 298 299 299 298 297 297 296 296 295 295 294 294 294
309 309 308 308 308 307 306 306 306 307 307 307 306 306 306 306 306 305 305 305 304 304 304 303 303 302 302 302 302 302 301 300 299 299 299 299 299 299 299 299 299 299 299 299 298 299 299 300 301 301 300 300 301 301 300 300 300 300 300 300 300 299 299 300 300 299 299 299 299 299 299 299 298 298 298 298 298 298 298 298 297 296 296 295 295 294 294
308 308 307 307 306 306 306 306 306 307 307 307 306 306 306 306 305 305 304 304 304 303 303 303 302 302 302 302 302 301 301 299 299 299 299 299 299 299 299 299 299 299 299 299 299 299 299 300 300 301 300 300 301 301 300 300 300 300 300 300 300 299 299 299 300 300 300 300 299 299 299 298 298 298 297 297 297 297 298 298 297 297 297 296 295 294 294
307 307 307 307 306 306 306 306 306 306 306 306 306 306 305 305 304 304 304 303 303 303 302 302 302 302 302 302 302 301 300 299 300 300 300 300 300 299 299 299 299 299 299 299 299 299 299 299 300 301 300 300 301 301 300 300 300 300 300 300 300 300 299 299 299 299 299 299 299 299 298 298 298 298 297 297 297 297 297 297 296 296 296 296 296 295 294
306 306 306 307 306 306 306 306 306 306 306 306 306 305 304 304 304 304 303 303 303 302 302 302 303 302 302 302 302 300 300 300 300 300 300 300 300 300 299 299 299 299 299 299 299 299 299 300 300 300 301 301 301 301 301 300 300 300 300 300 300 300 300 299 299 299 299 300 299 299 298 298 298 298 297 297 297 297 297 296 296 296 296 296 296 295 294
306 306 306 306 306 306 306 306 306 306 305 305 305 304 304 303 303 302 302 302 302 302 302 303 302 302 302 302 301 301 301 301 301 300 300 300 300 300 300 299 299 299 299 299 299 299 299 300 300 300 300 300 300 301 301 300 300 300 299 299 300 300 299 299 299 300 300 299 299 298 298 298 298 298 298 297 297 297 296 296 296 296 296 296 296 295 294
306 306 306 305 306 306 305 305 305 304 304 304 304 303 303 303 302 302 302 303 303 303 302 302 302 302 302 302 301 301 302 301 301 300 300 300 300 300 300 300 300 301 300 299 299 299 300 300 299 299 300 300 300 300 300 300 300 300 300 299 299 300 299 298 299 300 300 299 298 298 298 298 298 298 297 297 297 297 297 296 296 296 296 295 295 295 294
306 306 305 305 305 304 304 304 304 303 303 303 303 302 302 302 302 302 302 303 303 303 303 303 302 302 302 302 302 302 302 301 301 300 300 300 300 300 299 300 300 300 300 300 299 299 299 300 299 299 299 299 299 299 299 299 299 300 300 299 299 300 299 298 299 299 299 298 298 298 298 298 298 298 297 297 297 297 296 296 296 296 296 295 295 295 295
306 305 305 304 304 303 303 303 303 302 302 302 302 302 302 302 302 302 302 302 303 302 302 302 302 302 302 302 302 302 302 301 301 300 300 300 299 299 299 300 300 300 300 300 299 299 299 300 299 299 299 299 298 298 298 298 298 299 299 298 299 300 299 298 298 298 298 298 298 298 298 298 298 298 297 297 297 297 296 296 296 295 295 295 295 295 294
305 305 304 304 303 303 303 302 302 302 302 302 302 302 302 302 302 302 302 302 303 302 303 303 302 302 302 302 302 302 302 301 301 300 299 298 297 297 298 300 300 300 300 300 299 299 299 300 300 299 299 298 298 297 297 297 297 297 297 297 298 299 299 298 298 298 298 298 298 298 298 297 297 298 297 297 297 297 296 296 296 295 295 295 295 295 294
305 305 304 304 304 303 303 303 302 302 302 302 302 303 303 303 303 302 302 302 302 303 303 303 302 303 302 302 302 302 301 300 300 299 297 296 295 296 298 299 300 300 300 300 299 299 299 300 299 299 299 299 298 298 297 297 297 297 296 296 296 297 298 298 298 297 297 297 297 297 297 297 297 297 297 297 297 297 296 296 296 295 295 295 295 295 294
305 305 305 304 304 304 303 303 302 302 302 302 303 303 303 303 303 302 302 303 303 303 303 302 303 303 302 302 301 300 299 299 299 298 296 296 295 296 298 300 300 300 300 300 300 300 300 299 299 298 298 298 299 298 297 296 297 297 297 296 296 296 296 296 297 297 297 297 297 297 297 297 297 297 297 297 297 297 296 296 296 295 296 296 295 295 295
305 305 305 304 304 303 303 303 303 303 303 303 303 303 303 303 303 303 303 303 302 302 302 302 303 303 302 301 300 299 298 297 297 297 296 296 295 296 298 300 301 300 300 301 300 300 300 299 298 296 295 297 299 299 297 295 295 297 297 297 297 296 295 295 296 297 297 297 297 296 296 296 297 297 297 297 297 297 297 297 296 296 296 296 295 295 295
304 304 304 304 303 303 303 303 303 303 303 303 303 303 303 303 303 303 302 302 302 302 302 302 303 302 301 299 298 298 298 297 297 296 296 296 296 297 299 300 301 300 300 300 300 300 300 299 298 295 295 297 299 299 296 294 294 295 297 297 297 297 296 295 295 295 296 297 297 296 296 296 297 297 297 297 297 297 297 297 297 296 296 296 296 295 295
304 303 303 303 303 303 303 303 303 303 303 303 303 303 302 303 303 302 302 302 302 302 302 302 302 301 300 299 298 298 297 297 297 297 297 297 297 298 299 300 301 301 301 301 301 300 300 299 297 296 297 298 299 298 297 294 293 294 297 298 298 297 296 295 295 295 296 297 296 296 296 296 297 297 297 297 297 297 296 296 296 296 296 296 296 296 295
303 303 303 303 303 303 303 303 303 303 303 303 303 302 302 302 302 302 302 302 302 302 302 302 302 301 300 300 299 299 298 297 297 297 297 298 299 299 300 300 301 301 301 301 300 300 299 298 297 297 298 299 298 298 298 295 294 295 297 298 297 297 296 295 295 295 296 296 296 296 296 296 296 296 296 296 297 297 297 296 296 296 296 297 297 296 296
303 303 303 303 303 303 303 303 303 303 303 303 303 303 302 302 302 302 302 302 302 302 302 302 302 302 301 301 301 300 300 299 298 298 298 299 299 300 300 300 301 301 301 300 300 300 299 298 297 298 299 298 298 298 297 295 295 296 298 297 296 296 295 295 294 295 295 296 296 296 296 296 296 296 296 296 296 297 297 297 296 296 296 297 297 296 296
304 303 303 303 303 303 303 303 303 303 303 303 303 302 302 302 302 302 302 302 302 301 302 302 302 302 302 301 301 301 301 301 300 299 299 300 300 301 300 301 301 302 301 300 299 299 299 297 297 298 298 298 297 297 296 295 295 297 297 296 295 295 295 295 295 295 296 296 296 296 296 296 295 295 295 295 295 296 296 297 296 296 296 296 296 296 296
304 304 303 304 304 304 303 303 303 303 303 303 303 302 302 302 302 302 302 302 302 301 301 302 302 302 302 302 302 302 302 302 301 301 301 301 301 301 301 301 302 302 301 299 299 299 298 297 297 298 298 298 297 296 295 295 296 297 297 296 296 295 295 295 295 295 296 296 295 295 295 295 295 295 295 295 295 295 296 296 296 296 296 296 296 296 296
303 303 303 303 303 304 303 303 303 303 303 303 303 303 302 302 302 302 302 302 302 301 301 301 301 301 301 302 302 302 302 302 302 301 301 301 301 301 301 302 302 301 299 299 299 299 298 298 298 298 297 297 296 295 294 295 296 297 296 296 296 296 296 296 296 295 295 295 295 295 295 295 295 295 295 295 295 295 295 295 296 296 296 296 296 296 296
304 304 304 304 303 303 303 303 303 303 303 303 302 303 302 302 302 302 302 302 302 302 301 301 301 301 301 301 301 302 302 302 301 301 301 301 301 301 301 301 301 300 299 299 299 299 299 299 298 297 296 296 295 294 294 294 296 297 296 296 296 296 296 296 296 295 295 295 295 295 295 295 295 295 295 295 295 295 295 295 295 295 295 296 296 296 296
303 303 303 303 303 303 303 303 303 303 303 303 302 302 302 302 302 302 302 302 302 302 301 301 302 301 301 301 301 301 301 301 301 302 301 301 301 301 301 301 300 300 299 299 298 299 299 298 297 297 296 296 295 294 294 295 296 296 296 296 296 296 296 296 296 295 295 295 295 295 295 295 295 295 295 295 294 294 295 295 295 294 295 295 296 296 296
303 303 303 303 303 303 303 303 303 303 303 303 303 302 302 302 302 302 302 302 302 302 301 301 301 301 301 301 301 301 301 301 301 301 301 301 301 302 301 301 301 300 299 298 298 298 298 298 297 296 296 296 295 294 294 295 296 296 296 296 296 296 296 296 296 295 295 295 295 295 295 295 295 295 295 294 294 294 294 294 294 294 294 295 295 295 295
304 304 304 303 303 303 303 303 303 303 303 303 303 303 302 302 302 302 302 302 301 301 301 301 301 301 301 301 301 301 301 301 301 301 301 301 301 301 301 300 300 299 299 298 298 298 298 298 298 297 296 295 295 294 295 296 296 296 296 296 296 296 296 296 295 295 295 295 295 295 295 295 295 295 294 294 294 294 294 294 294 294 294 294 294 294 295
304 304 304 303 303 303 303 303 303 303 303 303 303 303 302 302 302 302 302 301 301 301 301 301 301 301 301 301 301 301 301 301 301 301 301 300 300 301 300 300 299 298 298 298 298 298 298 298 298 297 296 295 295 295 296 296 296 296 296 296 296 296 296 296 295 296 295 295 295 295 295 295 295 294 294 294 294 294 294 294 294 294 294 293 293 293 294
304 304 303 303 303 303 303 303 303 303 303 303 303 303 302 302 302 302 302 302 301 301 301 301 301 301 301 301 301 301 300 300 301 301 301 301 301 300 300 300 299 298 298 298 298 298 297 297 297 296 295 294 295 295 296 296 296 296 296 296 296 296 296 296 295 295 295 295 295 295 294 294 295 294 294 294 294 294 294 294 293 293 293 293 293 293 294
304 304 304 303 303 303 303 303 303 303 303 303 302 302 302 302 302 302 302 302 302 301 301 301 301 301 301 301 301 300 300 300 300 300 301 301 300 300 299 300 299 298 297 298 298 298 297 297 296 295 294 294 295 296 296 296 296 296 296 296 296 296 296 295 295 295 295 295 294 294 294 294 294 294 294 294 294 294 293 293 293 293 293 293 293 294 294
304 304 303 303 303 303 303 303 303 303 302 302 302 302 302 302 302 302 302 302 301 301 301 301 301 301 301 301 301 300 300 300 300 300 300 300 299 299 299 299 299 298 297 297 298 298 297 296 296 295 294 294 295 296 296 296 296 296 296 296 296 296 296 295 295 295 295 295 294 294 294 294 294 294 294 294 293 293 293 293 293 293 293 293 294 294 294
304 303 303 303 303 303 303 303 303 302 302 302 302 302 302 302 302 302 302 301 301 301 301 301 301 301 301 301 301 301 300 300 300 300 299 299 299 299 299 298 298 298 297 297 297 297 297 297 296 295 295 295 295 296 296 296 296 296 296 296 296 295 295 295 294 294 294 294 294 294 294 294 294 294 294 294 293 293 293 293 293 293 293 293 293 294 293
Wind_Speed
7 4 1 8 11 9 10 12 11 11 12 11 11 9 2 4 1 6 11 15 17 15 14 14 14 13 13 13 12 11 11 11 11 11 11 11 11 11 11 11 11 11 11 12 14 15 15 16 16 16 16 17 17 18 18 18 18 18 18 19 19 20 20 21 22 22 22 22 23 23 23 23 24 24 25 26 27 27 27 26 26 26 26 27 26 20 16
9 8 4 4 9 9 6 6 7 6 7 7 6 5 5 5 7 14 17 16 15 14 13 14 14 13 13 12 11 11 11 11 11 11 11 10 9 9 10 11 11 11 12 13 14 14 15 16 16 15 16 17 18 18 19 19 19 18 18 18 19 20 21 21 22 22 22 22 23 23 24 24 24 24 25 26 27 26 27 27 26 27 26 27 27 23 21
9 10 9 6 9 13 13 10 8 8 9 9 9 10 13 13 14 17 20 18 13 11 13 15 14 12 12 12 12 12 11 11 11 10 10 9 8 9 10 10 10 11 12 13 14 14 15 16 16 15 15 17 18 18 19 19 19 19 18 18 19 20 21 21 22 22 22 22 23 23 24 24 24 24 24 25 26 25 26 27 26 27 27 28 29 26 22
7 9 12 12 12 15 15 12 10 7 8 9 8 8 10 14 18 19 17 13 9 10 14 15 14 14 14 13 13 12 10 10 11 10 10 9 9 10 9 8 10 11 12 13 14 14 15 15 15 16 16 17 17 18 19 19 19 19 18 19 19 20 21 21 22 22 22 22 23 23 24 24 24 24 24 25 26 26 26 27 26 26 26 27 28 28 23
7 7 10 13 13 10 8 7 8 5 5 10 12 12 13 14 15 12 8 9 11 14 15 15 14 15 14 13 12 11 10 11 11 10 10 9 9 9 8 8 10 11 11 12 14 14 14 14 15 15 16 16 16 17 17 19 19 19 19 19 19 20 20 21 22 22 22 22 22 23 23 23 23 24 24 25 26 26 26 26 26 25 25 25 26 27 26
7 7 7 9 10 7 3 2 4 6 4 11 14 14 13 12 10 9 10 14 16 15 15 16 16 14 13 12 11 10 10 10 9 10 10 9 9 9 8 9 11 11 12 13 13 14 14 14 14 14 14 14 14 14 15 17 17 17 18 19 19 19 20 21 21 21 22 22 22 23 23 23 23 23 24 25 25 25 25 26 27 26 25 25 25 25 26
6 8 7 7 6 3 0 1 1 5 9 15 17 15 11 11 13 17 19 18 17 15 14 15 16 15 14 13 11 10 10 9 9 10 9 8 8 8 8 9 10 11 11 12 13 13 13 13 13 13 13 12 13 13 14 15 16 17 18 18 19 19 20 20 21 21 22 22 22 22 22 23 23 23 24 24 24 24 25 25 26 26 25 24 24 25 25
6 6 6 4 4 4 2 3 6 8 10 12 13 13 11 9 11 16 18 18 17 17 16 15 15 16 15 13 10 10 9 9 9 9 8 7 8 8 8 8 9 9 10 12 12 13 13 13 13 13 12 12 12 13 14 15 16 17 17 18 18 19 20 20 21 21 21 21 22 22 22 22 23 23 23 24 24 24 24 24 24 25 25 24 23 23 24
7 6 4 3 5 5 5 6 7 6 5 4 6 8 6 6 9 14 17 18 18 17 17 16 16 16 14 11 8 8 9 9 9 9 8 8 9 9 8 8 9 9 10 11 11 12 13 13 13 13 13 12 12 13 14 15 15 16 16 17 18 18 19 20 21 21 21 21 22 22 22 22 23 23 23 23 23 23 23 23 23 24 24 24 23 21 22
7 6 5 5 5 4 5 8 8 4 1 2 7 9 6 5 9 13 16 18 18 18 17 17 16 13 10 8 7 7 8 9 9 9 9 9 9 9 8 8 9 9 9 10 10 11 12 13 13 13 13 13 13 13 14 14 15 15 16 17 18 18 19 20 20 20 20 21 21 21 22 22 22 22 22 22 22 22 22 22 22 22 22 23 23 22 22
6 6 6 6 4 2 5 10 10 6 4 3 6 5 4 7 11 13 15 17 17 17 17 16 13 8 6 7 7 8 9 9 9 9 9 9 9 8 8 8 8 8 7 8 9 10 11 12 13 13 13 14 13 13 14 15 15 16 16 17 17 17 18 18 19 20 20 20 21 21 22 22 22 22 22 22 22 22 22 21 22 22 21 21 22 22 23
6 6 5 3 2 3 7 10 9 7 5 5 6 5 5 11 14 13 15 16 16 16 16 13 7 3 5 8 9 10 10 10 10 9 9 9 9 9 8 7 7 7 6 7 9 10 11 12 12 12 13 13 13 14 14 14 15 15 16 16 16 16 16 17 18 19 20 20 20 21 21 22 22 22 21 22 22 22 22 22 22 22 21 21 21 21 23
5 6 4 4 4 5 8 9 8 7 6 6 5 2 7 14 16 14 15 15 16 15 13 9 3 4 7 11 12 12 12 10 10 9 9 9 9 9 8 6 6 7 7 8 9 10 10 11 11 12 12 12 13 13 13 14 15 15 15 15 15 15 15 16 17 18 19 20 19 20 21 21 22 22 22 22 22 22 22 22 22 23 23 22 22 21 22
5 5 4 6 4 2 4 8 7 4 3 3 2 5 12 17 17 15 15 14 15 13 10 8 8 10 14 16 14 13 12 11 10 10 10 9 9 9 8 5 5 7 8 8 8 9 9 9 10 11 12 12 12 13 13 14 15 14 14 15 15 15 16 16 16 17 18 19 18 19 20 21 21 22 23 23 22 22 22 22 22 23 23 23 23 22 22
3 5 5 4 2 2 5 8 6 2 1 4 8 10 14 16 16 16 15 13 13 11 10 12 13 14 16 16 14 13 12 12 11 11 10 10 9 8 8 7 6 6 7 8 7 8 8 8 9 9 10 12 12 12 13 14 14 14 14 14 15 15 16 16 17 16 17 18 18 18 20 21 21 22 23 23 23 23 22 22 22 22 23 23 23 23 22
3 4 4 3 5 8 8 6 5 4 5 8 11 12 13 14 14 14 13 12 12 12 13 14 15 16 16 15 14 13 12 12 12 11 10 9 9 8 8 8 7 7 8 8 7 7 7 8 8 8 9 10 11 12 12 13 13 13 14 14 15 15 16 16 16 16 16 17 18 18 20 21 21 22 22 23 23 23 23 22 22 22 22 22 23 23 23
5 5 6 6 8 9 7 4 7 10 11 11 12 13 13 12 12 12 11 12 13 13 15 16 15 14 15 15 14 13 12 12 12 11 10 10 9 9 8 8 8 8 9 9 8 8 8 8 8 8 8 9 9 11 12 12 13 14 14 14 15 15 15 15 16 16 16 16 16 17 18 20 21 21 22 22 23 24 23 23 22 22 22 21 21 22 22
9 9 7 7 9 9 8 8 9 10 11 11 12 13 12 12 12 12 11 13 14 15 15 15 14 14 15 15 14 13 12 13 12 11 11 10 10 9 9 8 8 9 9 9 8 9 8 8 8 7 7 8 8 9 11 12 13 13 14 14 14 14 15 15 15 16 16 16 16 15 16 18 21 21 21 21 21 23 24 23 22 21 21 22 21 20 21
5 5 6 8 10 10 10 10 10 10 11 11 11 11 12 12 13 13 14 15 16 16 15 15 15 16 16 15 14 12 11 12 12 12 11 10 10 10 9 8 8 8 9 9 8 8 8 8 8 7 7 8 7 8 10 12 12 12 13 14 14 14 15 16 15 16 16 15 15 15 14 15 18 20 20 20 19 19 20 21 22 21 22 22 20 20 19
4 7 9 9 9 11 10 9 9 10 11 12 12 11 12 13 14 16 17 17 16 15 15 15 16 16 15 14 13 11 11 12 12 12 12 11 10 10 8 8 8 8 9 9 8 8 7 8 8 7 8 8 7 7 9 11 11 11 12 12 13 13 15 15 15 15 16 15 14 15 14 12 13 15 17 18 17 15 15 18 19 19 21 21 20 20 19
8 10 12 11 11 10 9 8 9 10 11 13 13 14 15 16 16 17 18 18 17 17 17 17 16 15 14 14 13 12 11 12 12 12 12 11 10 10 9 8 8 8 8 8 8 8 8 8 8 8 7 7 7 6 8 10 11 11 11 11 12 13 13 14 14 14 15 15 15 16 15 10 7 7 11 15 15 12 12 15 18 18 18 19 20 20 19
7 8 12 12 10 8 8 9 11 11 12 13 14 15 16 17 17 16 16 17 19 20 20 19 16 14 13 14 14 13 12 13 13 12 11 11 10 10 9 8 8 8 8 8 8 8 8 8 8 8 8 7 7 6 7 9 11 11 11 11 12 13 13 13 14 14 15 15 15 16 16 12 6 3 5 9 12 11 10 12 16 18 18 19 20 21 20
7 12 15 11 8 9 10 11 12 12 13 14 15 16 17 17 17 18 17 17 18 18 19 20 17 14 14 14 14 13 13 13 13 12 11 11 10 9 8 8 8 7 7 7 8 8 9 8 8 8 8 7 6 6 7 9 10 11 11 11 12 13 12 12 13 13 14 15 15 15 16 16 13 10 6 5 6 8 10 10 12 14 17 19 21 23 22
11 14 13 9 9 12 13 12 12 13 14 15 15 16 17 17 19 20 19 18 18 16 16 18 18 16 15 15 14 14 14 13 12 11 11 10 10 9 8 7 7 7 6 7 8 8 8 8 8 8 8 7 6 6 7 9 9 10 10 10 11 13 12 11 11 12 12 13 14 15 15 16 17 16 14 10 7 6 7 8 9 11 13 17 21 22 23
12 11 10 11 13 14 13 13 13 14 16 17 15 16 18 19 21 23 21 19 20 18 16 17 18 16 15 15 14 14 14 13 13 12 11 10 9 8 8 7 6 6 6 7 8 8 7 7 7 7 8 7 6 6 7 8 9 10 10 9 10 12 12 11 10 11 12 12 13 14 15 15 15 16 16 16 14 11 8 8 8 8 8 13 19 21 20
12 12 13 15 15 14 13 13 13 14 18 19 17 17 21 22 22 23 22 20 20 19 18 18 17 15 14 14 13 13 14 13 12 11 10 10 9 8 8 7 6 5 5 6 7 7 6 6 7 8 8 7 6 6 7 8 8 9 9 8 6 6 8 9 9 11 12 11 12 14 14 13 15 16 16 16 17 16 14 12 12 10 8 9 16 19 20
13 13 15 17 16 14 14 14 15 17 20 22 21 21 24 24 22 22 21 20 19 18 17 17 16 15 14 13 12 14 14 12 9 9 9 9 9 8 7 7 6 5 4 5 6 5 5 5 7 8 7 7 6 5 6 7 8 8 9 9 6 4 6 9 10 11 11 10 11 13 13 12 14 15 16 16 16 16 16 15 16 16 13 12 15 19 21
13 13 13 13 14 15 16 17 19 20 22 23 24 24 24 23 21 19 18 18 18 18 16 15 14 13 13 12 12 12 12 10 9 9 9 9 8 7 7 6 5 4 4 4 5 5 4 5 6 7 7 6 6 5 6 6 7 8 8 9 9 8 9 11 12 12 11 10 10 10 11 12 13 14 14 16 16 16 16 16 15 16 16 16 17 19 21
13 13 12 12 15 18 19 19 20 19 20 22 23 23 22 21 17 15 15 16 17 16 15 14 13 12 12 11 12 11 10 9 9 9 9 8 8 7 6 5 4 4 3 3 4 4 4 5 5 6 6 6 5 6 6 6 7 8 8 8 9 9 11 13 13 11 10 9 9 9 10 11 12 12 12 14 16 15 15 16 16 16 17 17 17 18 20
13 13 14 15 17 19 19 18 17 17 18 20 20 20 20 19 16 13 14 15 15 15 14 13 13 12 11 10 11 10 10 9 9 9 9 8 7 6 5 3 3 4 4 3 3 3 3 4 5 5 5 5 5 6 6 6 7 7 7 8 8 7 9 12 12 10 10 10 9 10 10 10 11 12 12 14 15 15 14 15 15 15 16 17 16 17 20
15 16 17 17 18 18 18 17 17 17 17 18 18 18 18 17 15 13 13 13 14 14 14 12 12 12 11 10 10 9 9 9 9 9 8 8 7 5 3 1 1 1 2 2 2 2 2 2 4 4 4 4 5 6 6 6 7 6 7 8 7 6 8 11 11 9 10 11 10 10 10 11 11 12 12 12 13 13 14 14 15 15 15 16 15 15 17
18 19 19 18 17 18 17 16 15 16 17 16 16 16 15 15 14 13 13 13 13 14 13 12 11 11 11 10 10 9 9 9 9 8 8 8 6 4 2 1 1 1 0 0 0 0 2 2 3 3 3 4 5 6 6 6 7 6 7 8 7 6 7 9 9 9 10 11 11 10 11 11 11 11 11 11 11 12 13 14 14 13 14 15 15 13 13
17 17 17 17 17 17 17 16 15 16 16 15 15 16 15 15 15 14 13 14 15 14 13 12 12 11 11 10 10 9 8 8 8 7 8 7 6 3 2 1 1 1 1 1 2 2 2 1 1 2 2 3 4 5 6 6 6 6 7 8 8 8 7 8 9 9 9 10 10 10 10 11 11 10 10 10 10 11 11 12 13 13 12 14 14 11 10
15 14 15 16 15 15 16 16 14 14 14 14 15 16 16 16 16 15 13 14 15 14 13 12 12 12 11 10 9 10 10 8 7 7 7 6 6 5 4 3 2 2 2 2 3 3 2 1 1 2 2 2 3 4 5 7 7 6 7 8 8 8 8 8 10 11 10 10 10 9 9 10 10 10 10 9 9 9 9 10 12 12 12 13 13 10 8
16 15 16 17 17 17 17 16 15 14 14 13 14 15 15 15 16 16 14 13 13 13 12 12 11 11 11 11 11 12 10 7 7 9 10 8 7 6 5 4 4 4 5 5 5 3 2 2 1 2 3 3 2 2 4 7 7 7 7 7 7 8 8 8 9 10 10 10 10 10 9 10 9 9 9 9 8 8 8 8 10 12 11 11 12 10 8
18 16 16 17 19 20 20 19 18 17 16 14 14 16 15 15 15 15 13 12 12 12 12 12 10 10 13 14 13 13 11 8 8 11 11 9 7 6 5 5 4 4 5 5 6 5 4 3 2 1 2 3 2 1 3 6 8 8 7 7 7 8 8 8 9 9 9 10 10 9 9 9 9 8 8 9 8 8 9 8 9 10 10 9 10 10 9
19 18 16 17 20 21 20 19 19 18 17 16 16 16 15 15 14 13 12 12 12 11 11 11 10 11 13 14 14 13 12 10 9 11 10 8 7 6 6 5 5 5 6 5 6 7 6 5 3 1 3 4 3 0 2 5 7 7 8 7 7 7 8 9 9 9 9 9 10 9 9 10 10 9 9 9 8 8 9 9 9 9 8 7 7 9 9
20 20 19 19 20 20 19 19 18 17 18 18 16 16 15 15 14 14 13 12 11 11 11 10 11 11 13 14 14 13 13 11 11 10 10 9 8 7 6 7 8 7 3 3 5 5 7 7 3 3 5 4 2 0 1 4 8 8 7 7 7 7 8 8 8 9 9 9 9 10 10 10 10 10 10 10 9 8 8 8 8 8 7 6 6 7 8
19 20 20 20 20 19 18 19 18 16 16 16 15 15 15 15 14 14 13 12 11 11 10 10 12 13 13 13 13 13 14 13 12 12 11 10 9 8 8 9 9 6 0 3 1 3 6 6 3 5 6 4 2 2 2 3 7 7 7 6 6 7 8 8 8 9 8 8 8 10 10 10 10 10 10 10 10 9 8 7 7 7 7 7 7 7 7
18 19 20 20 19 18 18 18 17 17 17 17 16 16 16 16 15 14 14 12 12 11 10 10 11 12 12 13 13 13 14 16 15 13 12 11 10 9 10 11 11 7 4 2 3 4 6 5 5 6 5 3 2 1 1 5 7 7 6 6 6 7 7 7 8 8 8 8 9 10 11 11 11 10 10 10 10 10 9 8 8 8 8 8 8 7 7
18 19 20 19 18 18 17 17 17 17 17 17 16 16 16 15 15 15 14 13 13 11 9 10 10 11 12 13 13 12 13 15 16 14 13 12 11 10 10 10 8 9 9 6 4 4 5 6 7 7 5 3 3 2 3 6 8 7 5 5 6 7 7 7 7 8 8 9 10 11 11 11 11 11 10 10 11 10 10 9 9 8 8 9 9 8 7
20 21 20 19 18 17 17 16 16 16 15 15 15 15 16 16 15 14 14 14 13 12 10 10 9 8 8 10 12 12 11 12 12 12 12 12 12 11 10 6 7 11 10 7 5 6 6 7 8 8 6 3 2 1 4 7 7 6 5 4 5 6 7 7 8 9 9 10 11 11 11 11 11 11 11 11 11 11 10 10 10 9 8 8 9 8 7
20 20 19 18 17 17 16 16 16 16 15 15 15 15 16 16 15 14 14 14 13 13 12 12 11 9 8 9 11 12 11 11 10 11 11 11 12 11 10 4 7 12 9 4 4 6 8 8 8 10 9 5 2 3 6 7 8 7 5 4 5 6 6 7 8 9 9 10 10 11 11 11 11 11 12 12 12 11 11 10 10 10 9 9 9 8 8
21 20 18 18 18 17 17 16 16 16 15 15 14 14 15 15 15 15 14 14 13 13 12 12 12 11 10 11 11 11 11 12 12 11 11 11 12 13 12 8 6 7 6 3 4 8 9 8 8 11 10 6 4 5 6 8 9 7 5 5 6 6 7 8 9 9 9 10 10 10 11 11 12 12 12 12 11 11 10 10 11 11 10 9 8 8 8
21 20 19 18 18 17 16 16 15 15 15 15 15 14 14 14 15 15 15 14 14 13 12 12 11 11 12 12 12 12 12 12 12 12 12 11 10 11 14 13 9 7 5 5 6 8 8 7 9 11 8 5 5 6 7 8 9 7 6 7 7 8 8 10 10 9 9 10 10 10 11 11 12 12 12 12 11 11 11 10 10 11 10 9 8 8 8
21 21 20 19 18 17 16 15 15 15 15 16 16 16 15 15 15 16 16 15 14 13 13 13 12 12 12 13 12 12 12 12 12 12 12 9 4 4 9 10 9 8 7 5 6 7 7 7 8 7 6 5 6 6 7 9 9 8 8 8 9 9 10 10 10 10 10 10 10 10 11 11 11 11 12 12 12 12 11 10 10 11 10 10 9 8 8
20 20 19 18 18 17 16 15 15 16 16 16 15 15 15 15 16 16 16 16 15 14 14 13 13 13 13 13 12 12 12 12 12 12 12 9 4 6 8 7 7 7 7 7 7 8 7 6 6 6 7 7 7 7 8 9 9 9 9 9 9 10 11 11 11 11 12 11 11 10 10 11 11 11 11 11 12 12 11 11 11 11 10 10 10 9 8
20 19 19 18 18 18 18 17 16 16 16 16 15 15 15 16 16 16 16 16 15 14 14 14 14 14 13 13 13 12 12 12 11 11 12 13 11 8 8 9 9 8 7 8 10 10 8 7 7 8 9 9 9 8 9 10 10 9 10 11 11 12 12 12 12 13 12 12 12 12 12 12 12 11 11 11 11 11 11 11 11 11 10 11 11 10 10
21 20 19 19 19 19 19 18 16 16 17 17 17 15 15 15 16 17 17 16 16 15 14 14 15 15 14 14 14 13 12 12 12 9 8 10 11 10 8 9 10 9 8 8 11 13 13 12 11 11 11 11 9 9 10 11 11 11 11 12 12 12 13 13 13 13 13 13 13 13 13 13 12 12 12 12 11 11 11 11 11 11 11 11 10 9 9
21 21 20 20 20 20 19 18 17 17 17 17 16 15 15 16 16 17 17 17 16 16 15 15 15 15 15 15 15 14 13 13 13 10 7 8 10 10 8 7 9 10 9 9 9 11 13 12 12 12 13 12 10 10 11 11 11 10 11 11 12 12 13 13 13 13 13 14 14 13 13 13 13 12 12 12 12 12 12 12 11 12 11 11 9 8 9
21 21 21 20 20 19 19 18 18 18 17 16 16 16 16 17 17 16 17 17 17 16 15 15 15 15 15 15 15 15 14 14 13 11 11 11 10 9 8 7 7 8 9 9 9 9 10 12 12 13 13 12 12 12 12 10 9 10 11 12 12 13 13 13 13 13 13 13 13 13 13 13 14 14 13 13 12 12 12 12 12 12 11 10 9 8 8
22 22 21 20 19 19 19 20 20 19 17 17 17 17 17 17 16 17 18 18 18 17 16 16 15 15 16 15 15 14 14 14 12 11 11 11 11 10 10 10 9 8 9 10 10 10 10 11 12 13 12 11 11 12 10 9 9 10 11 12 13 13 12 12 12 12 11 11 12 13 13 14 14 13 13 13 13 13 13 13 12 12 11 10 8 7 7
Wind_Direction
134 93 146 189 184 195 199 189 198 211 206 210 220 218 255 327 262 147 142 142 139 146 151 141 137 137 129 128 128 125 126 124 118 113 107 99 90 82 76 66 58 55 52 47 44 40 35 33 30 27 26 25 24 22 21 21 18 17 17 17 16 14 13 11 8 6 5 4 3 2 0 358 357 356 355 353 355 358 360 0 0 360 357 356 2 9 1
129 116 93 154 150 120 98 133 163 195 192 180 179 153 110 92 120 136 139 133 128 138 141 132 132 131 125 127 127 126 127 122 117 115 109 103 100 92 81 71 60 51 47 45 42 39 34 32 29 27 27 25 21 20 20 19 18 18 18 18 18 16 15 13 9 8 7 5 4 4 3 2 360 359 359 357 356 358 360 1 3 4 5 4 6 14 15
124 131 119 132 136 106 81 75 92 112 117 108 98 98 104 111 119 127 127 120 116 122 124 123 127 128 125 127 126 125 125 121 119 116 107 101 92 77 70 69 65 55 46 42 39 36 33 30 23 21 28 28 21 19 19 18 17 17 18 19 19 17 16 14 11 10 8 6 5 5 4 4 3 2 1 1 0 0 1 3 5 7 10 9 8 12 18
124 134 136 139 126 102 82 58 49 69 88 86 86 90 100 117 125 126 124 123 126 129 126 125 128 128 127 127 126 125 123 120 118 111 102 97 85 72 65 60 58 54 45 40 37 34 31 29 22 19 23 25 22 20 19 17 17 17 18 19 20 18 16 15 13 11 10 7 6 5 4 4 5 4 4 4 3 3 3 4 6 9 11 12 10 10 13
124 132 143 149 148 134 105 55 10 2 78 96 94 86 87 109 128 135 137 139 140 138 134 130 130 129 127 126 126 125 123 122 117 110 106 98 86 78 69 59 55 51 44 40 37 33 30 28 23 20 21 22 22 22 21 20 19 19 19 20 21 19 16 15 15 12 10 9 7 6 5 4 5 6 6 6 5 5 4 4 6 9 11 13 12 10 9
138 150 163 176 178 167 129 57 333 337 64 102 101 90 84 89 94 93 105 125 137 140 137 133 131 130 126 123 123 123 123 122 115 110 105 95 89 81 69 63 59 50 43 40 36 33 30 28 25 22 22 24 22 21 23 23 21 22 22 22 21 19 16 16 14 12 10 10 8 7 6 5 6 7 7 7 7 6 6 6 6 8 9 11 12 12 9
140 151 177 200 184 147 109 230 33 40 74 95 92 79 71 79 89 97 110 126 138 136 130 128 126 123 120 118 117 117 117 117 114 110 103 97 93 84 73 70 65 55 46 40 36 33 30 28 29 25 22 24 24 23 24 23 19 19 22 22 21 18 17 15 13 11 12 11 8 7 6 6 7 7 7 8 8 7 7 8 9 9 9 9 10 13 11
140 159 188 194 132 106 117 129 108 103 113 116 98 71 56 75 104 116 123 129 131 127 124 124 121 120 117 112 110 116 117 115 113 109 104 96 87 80 78 74 67 60 53 46 39 35 32 30 31 30 25 24 27 26 26 25 22 20 20 22 21 18 16 14 13 12 11 10 10 9 8 7 6 6 6 7 7 7 6 8 10 10 11 11 9 10 13
163 160 136 115 131 146 153 154 150 136 130 139 115 89 70 84 112 124 129 128 127 127 126 125 125 123 116 107 108 120 121 117 115 112 109 103 94 90 88 78 67 57 56 55 46 39 37 34 34 34 30 29 32 31 28 27 26 24 21 21 20 18 16 14 12 12 10 9 10 10 10 10 8 6 6 6 5 6 6 7 9 9 10 12 11 9 12
163 146 124 139 165 180 172 173 181 177 83 78 107 108 105 116 126 133 135 132 133 133 131 133 136 131 115 109 121 132 129 126 123 117 112 107 100 96 89 81 75 65 59 58 49 43 42 38 38 40 36 34 35 34 31 28 26 25 24 21 19 18 17 15 13 13 12 9 9 10 11 12 11 8 8 7 5 5 5 5 6 7 7 9 12 11 11
164 171 180 175 163 120 144 160 170 181 190 167 148 139 138 145 146 144 140 138 139 139 139 143 148 141 122 125 139 145 141 133 128 121 114 108 100 93 87 82 80 75 69 62 53 47 44 40 39 40 40 40 38 35 32 29 26 25 23 20 18 16 15 16 16 15 14 12 10 10 11 11 11 10 10 10 9 7 8 7 5 6 5 6 10 12 11
173 186 181 141 80 85 129 147 157 162 170 189 208 219 166 154 156 152 146 144 142 142 146 151 156 150 141 145 147 149 147 138 128 122 115 109 103 99 98 93 89 86 78 66 58 50 44 42 41 38 39 41 38 34 31 28 28 25 20 18 18 15 13 16 17 17 16 15 13 13 12 11 11 11 10 10 10 10 12 12 9 9 8 5 7 10 12
176 191 160 100 82 102 129 143 148 148 161 193 219 208 135 148 153 148 146 145 141 143 148 149 126 82 116 133 140 144 144 134 124 121 118 112 104 99 96 91 91 88 74 63 61 53 44 42 41 39 38 38 37 35 30 27 26 23 18 18 17 15 15 16 18 19 18 17 16 14 14 13 13 13 11 10 10 9 10 12 12 12 12 10 9 9 11
193 185 130 109 99 94 143 142 124 121 181 187 136 103 126 142 145 143 144 142 138 139 136 127 113 105 115 127 135 139 138 132 130 132 126 116 107 102 100 92 85 86 79 69 63 56 47 42 41 41 39 36 36 33 28 26 24 19 17 17 15 15 18 17 17 20 18 17 17 14 14 15 14 15 14 11 12 10 8 9 12 13 13 12 11 10 10
203 164 131 125 125 149 174 154 122 53 313 122 113 118 131 137 138 138 140 138 135 131 122 121 123 120 123 129 133 135 135 135 135 130 120 112 107 106 105 96 83 84 86 78 65 56 49 42 39 40 39 37 34 29 26 26 23 17 17 19 17 17 18 17 18 19 18 18 17 15 15 15 15 16 16 13 12 13 10 9 9 11 13 13 12 11 9
279 165 126 81 103 133 161 162 120 96 103 118 127 131 133 136 136 138 137 135 134 131 126 126 127 127 129 132 134 135 135 133 130 122 117 114 106 98 93 87 84 84 83 79 71 61 53 43 38 36 37 38 33 27 25 24 21 19 18 19 19 19 18 18 18 18 18 17 17 17 17 17 17 18 18 15 14 13 13 11 9 10 11 11 11 12 10
39 79 85 80 98 119 128 105 102 111 113 121 131 131 132 137 138 137 134 131 133 133 130 129 129 131 133 133 134 135 132 130 129 125 121 116 106 99 93 88 91 90 84 80 72 63 54 46 41 36 34 37 34 27 25 22 21 22 19 18 21 20 17 17 17 18 19 16 16 19 18 19 19 17 16 16 16 13 13 12 10 10 10 9 10 12 12
88 69 71 97 109 116 115 105 106 111 113 123 131 131 134 137 135 134 134 133 134 135 133 132 132 134 135 135 136 136 133 132 132 126 120 115 109 106 100 92 93 94 89 84 74 65 57 47 42 36 34 40 37 27 25 25 23 23 21 21 23 21 18 17 17 19 21 17 16 19 18 17 18 16 14 16 15 13 13 12 11 11 10 7 7 11 14
135 85 96 117 115 114 114 109 110 111 113 122 129 130 133 133 132 135 136 133 134 135 135 137 135 134 138 138 135 135 133 131 130 124 118 114 109 106 100 96 98 95 89 83 72 64 55 43 38 32 30 41 41 27 27 29 26 25 26 25 23 21 20 19 17 20 23 18 15 18 17 14 15 14 15 16 16 16 15 13 11 11 11 9 6 5 10
105 110 127 127 109 109 114 114 116 117 115 119 125 129 130 130 132 135 134 133 135 137 138 138 135 136 139 139 135 135 133 130 128 123 119 117 113 109 104 97 94 89 82 74 65 58 49 36 33 31 29 38 42 30 29 31 27 25 30 30 27 25 23 20 18 19 21 19 16 15 16 17 17 16 16 16 20 26 26 22 19 16 13 13 10 2 5
100 118 137 134 115 115 123 122 121 123 122 124 127 128 130 131 133 135 135 135 138 138 137 140 140 140 139 136 134 134 131 127 125 121 119 121 118 114 109 98 89 83 75 67 57 50 43 32 32 36 37 38 38 29 29 33 29 25 27 29 29 30 27 22 19 18 18 19 16 14 17 26 38 35 27 24 28 40 42 35 33 29 25 25 20 11 10
141 147 154 148 131 129 136 132 130 129 127 129 130 130 133 136 137 137 137 137 137 138 141 145 143 137 134 135 135 132 125 123 123 123 124 126 123 121 118 109 99 88 74 64 55 46 38 33 34 39 40 41 41 33 30 35 34 28 25 24 27 29 28 23 18 15 16 18 15 12 13 19 31 52 42 32 34 42 46 40 35 33 34 34 29 22 19
144 151 160 157 134 129 136 137 134 131 131 133 135 135 137 139 140 139 137 136 137 141 147 147 139 131 133 135 131 125 121 122 126 127 128 128 127 128 126 115 104 93 75 63 54 43 36 35 38 41 43 45 44 38 36 39 38 32 29 27 24 23 24 23 18 14 12 14 13 10 9 10 11 13 17 24 27 28 30 33 34 32 32 32 29 25 22
123 145 158 150 130 132 137 137 134 134 136 137 137 138 140 141 140 138 138 139 141 143 143 139 134 133 135 132 127 126 126 126 125 121 119 121 123 123 121 113 103 92 74 59 50 43 38 37 37 41 48 49 43 37 40 40 36 32 31 31 27 22 17 15 14 11 9 8 5 5 8 8 6 6 7 6 6 8 10 17 22 24 27 28 26 23 23
128 137 137 129 129 133 134 134 135 138 139 139 139 140 141 141 141 141 141 142 142 141 139 136 136 137 134 130 129 130 127 122 122 121 119 119 117 113 112 110 103 95 78 61 50 41 36 37 39 42 51 54 45 34 37 38 35 31 28 26 26 21 10 1 0 5 7 3 358 1 7 6 2 3 6 4 2 0 358 360 3 3 11 22 25 24 22
125 125 126 127 127 129 132 134 136 139 138 138 138 138 138 141 144 143 141 140 140 140 139 138 139 138 134 132 132 129 123 125 134 136 129 122 118 113 109 107 100 92 81 70 57 41 29 35 43 45 50 55 44 28 31 36 32 26 21 18 25 30 18 4 355 357 1 358 352 356 3 1 357 1 7 5 2 1 1 359 357 355 354 13 24 25 19
126 131 134 131 128 132 136 135 135 137 138 138 138 138 141 144 144 141 138 138 139 138 138 139 140 138 133 129 125 122 125 136 146 139 126 120 118 113 108 107 104 97 88 76 60 42 28 39 49 47 46 50 44 27 25 29 27 23 17 10 10 32 30 8 351 349 353 352 350 355 359 358 357 359 2 3 3 2 2 0 357 355 353 356 8 15 13
132 137 139 135 133 136 136 134 136 137 138 139 140 140 142 143 143 142 141 141 141 141 140 140 140 137 135 131 127 127 135 144 142 133 129 127 123 117 112 111 107 100 95 80 61 46 37 44 52 51 43 42 40 30 21 18 20 22 14 1 1 14 12 356 343 342 345 347 350 354 351 350 356 358 356 358 1 0 0 1 358 353 352 351 354 1 6
139 140 136 131 132 133 134 135 137 137 139 140 140 142 144 145 144 144 142 142 144 144 142 142 142 139 139 141 140 141 147 150 144 141 139 134 129 126 124 123 122 121 119 93 61 45 37 41 49 50 43 36 31 26 19 8 7 14 11 1 6 15 5 350 343 342 343 347 353 351 340 340 354 360 356 357 0 358 358 3 1 353 352 355 356 357 359
141 137 132 132 136 137 138 139 139 140 142 144 145 147 149 147 147 146 144 146 148 144 142 148 148 143 144 151 151 150 154 155 150 145 142 139 137 135 132 143 166 163 142 105 63 37 27 38 45 40 33 29 20 18 16 1 353 3 5 357 3 18 7 353 348 347 347 350 354 351 343 344 356 2 357 355 358 358 359 4 4 358 355 358 2 2 360
138 135 133 136 141 142 141 142 143 145 147 149 150 151 149 148 149 148 146 149 150 145 146 154 152 147 151 159 156 152 154 154 149 146 145 141 138 135 132 129 120 112 103 84 63 25 355 24 45 34 21 20 17 14 13 0 348 353 357 350 358 28 23 3 353 350 351 352 354 352 349 350 353 357 357 357 358 359 360 1 3 2 358 357 1 6 4
137 136 139 143 146 146 144 146 148 148 148 151 151 151 151 153 152 148 150 155 152 148 153 160 160 158 160 159 155 155 155 151 149 147 141 134 130 132 139 117 91 91 92 149 128 344 321 350 41 33 13 14 18 14 9 360 348 348 353 347 345 3 12 357 347 347 351 354 353 351 349 349 348 351 357 0 360 359 359 359 1 2 359 356 1 8 9
144 145 150 153 152 149 149 151 150 149 150 153 154 153 154 155 150 150 158 160 153 153 163 167 165 165 164 162 163 161 151 145 142 132 125 132 144 164 197 191 168 201 240 236 226 229 243 289 21 20 4 10 19 15 7 358 348 348 355 348 336 338 344 334 326 332 345 352 349 345 344 346 347 348 354 358 359 358 358 358 359 0 357 355 359 8 16
152 151 153 153 150 150 151 150 150 152 153 154 156 155 155 153 151 154 164 165 159 161 170 172 172 174 169 163 158 147 139 149 157 145 142 163 182 197 216 215 205 230 237 224 228 232 221 198 356 347 343 353 4 6 2 355 344 342 350 346 333 333 337 329 325 334 345 348 342 340 346 351 350 347 348 349 351 356 357 355 356 357 357 354 354 2 21
151 149 149 149 149 151 151 150 152 155 154 155 157 155 154 158 160 160 166 171 168 170 175 178 180 171 150 138 137 137 140 160 172 161 168 191 200 202 220 226 216 228 235 215 204 213 213 196 238 315 327 325 331 4 5 353 339 333 338 337 329 329 331 327 326 332 338 340 342 346 351 350 344 338 336 336 342 352 355 354 354 357 358 354 351 355 12
152 151 152 152 152 152 152 152 154 153 152 157 161 156 157 166 167 159 162 173 177 176 180 180 173 151 135 136 147 154 158 164 163 162 175 196 198 198 228 239 222 237 258 226 191 185 192 201 212 289 310 294 290 345 9 352 340 329 322 320 323 329 332 328 325 326 331 337 343 344 342 339 335 330 330 336 346 352 354 355 357 357 358 357 352 351 357
155 155 154 152 153 154 153 152 154 155 156 162 164 160 162 169 166 157 164 178 179 173 173 172 164 152 149 154 161 165 165 164 165 170 181 190 190 200 232 232 215 240 267 234 184 172 176 184 195 269 272 262 264 304 8 352 345 331 316 314 325 333 331 329 329 329 329 333 336 336 338 340 339 335 335 342 349 352 353 357 356 354 357 1 355 349 352
156 156 154 152 154 156 154 155 160 163 164 165 165 165 167 170 165 161 170 179 173 165 168 169 163 158 159 162 167 171 172 173 178 184 191 195 199 211 228 225 222 234 235 147 139 160 176 178 196 264 260 258 277 259 300 345 348 334 313 313 326 329 325 327 329 326 324 330 336 336 337 339 338 336 337 342 346 348 350 354 354 349 352 357 354 349 351
157 157 156 156 158 159 158 160 165 168 167 166 166 168 172 173 170 169 173 174 167 165 172 173 167 162 164 172 178 181 183 187 194 197 199 206 215 222 229 237 247 257 276 84 96 201 184 179 224 257 245 249 283 244 232 332 343 327 303 307 324 328 326 328 327 322 322 329 333 329 328 334 341 340 336 334 337 341 345 349 349 346 347 354 355 354 352
159 159 160 161 163 163 163 164 167 170 172 172 172 174 177 178 177 178 178 173 167 170 181 184 179 174 176 182 189 190 189 192 198 201 204 213 223 228 236 244 245 233 213 238 261 221 186 191 243 255 239 234 259 257 322 335 323 305 297 316 334 335 330 330 328 325 328 332 331 328 330 337 341 338 333 332 333 335 338 344 346 345 348 352 352 352 352
162 162 164 165 166 166 167 168 171 176 179 179 176 176 179 182 184 185 183 178 172 176 187 192 191 191 190 192 198 203 195 189 191 198 207 215 219 224 237 242 218 183 175 189 214 220 215 222 242 255 257 237 210 211 311 315 302 292 301 332 341 336 332 333 331 328 331 335 334 332 335 337 336 333 333 334 334 333 334 339 340 342 346 349 346 347 352
166 166 167 169 169 171 172 172 175 180 184 185 184 181 183 188 191 189 188 187 182 183 191 197 204 221 225 208 201 207 207 198 195 201 210 215 217 225 236 223 161 153 166 185 196 208 222 226 230 243 255 245 175 239 302 301 294 291 305 329 337 333 332 335 334 331 335 340 339 336 337 339 336 334 333 334 334 334 335 336 336 338 344 344 341 343 349
170 170 171 172 173 175 175 175 177 180 182 185 188 185 183 188 193 192 194 195 190 188 196 201 204 223 243 227 206 206 212 212 209 211 214 216 223 240 257 243 148 147 160 181 196 211 226 230 219 211 209 208 244 300 300 292 285 284 295 314 326 329 331 334 335 336 338 339 338 339 341 341 337 335 335 337 338 337 335 335 335 337 339 338 336 338 345
173 175 177 177 177 179 181 181 181 182 181 183 188 188 187 190 193 193 195 199 196 196 205 208 201 202 215 222 218 215 214 211 211 216 218 218 220 227 234 227 180 155 158 175 215 233 244 242 209 187 184 200 253 276 280 280 280 286 296 304 309 316 320 323 329 335 336 333 333 339 341 338 336 337 340 340 338 336 336 338 339 334 330 330 332 334 338
178 180 183 182 182 184 186 185 185 186 186 185 186 189 194 198 197 195 199 202 200 199 207 214 210 203 205 211 217 219 218 216 215 214 217 228 235 222 207 198 192 189 195 212 232 243 248 227 193 182 184 209 243 255 266 274 278 285 292 294 299 307 311 313 319 326 326 323 328 335 335 332 333 337 338 337 337 336 335 337 336 329 326 331 336 334 332
182 184 185 186 186 188 189 189 188 189 194 194 191 190 196 202 201 201 203 205 204 204 209 214 214 210 205 205 209 214 219 226 228 221 219 231 243 165 165 174 180 185 192 212 234 239 234 211 190 187 197 213 223 240 262 269 273 281 288 290 295 302 303 304 309 313 311 312 320 326 324 321 325 332 333 332 332 334 335 336 334 330 330 335 337 332 327
186 186 186 188 190 190 190 193 194 194 198 202 199 194 196 203 206 206 205 206 207 209 212 213 214 213 210 210 212 213 216 222 227 226 226 228 201 147 156 182 201 200 205 224 233 229 222 217 215 217 220 217 217 238 261 267 272 283 288 288 290 295 299 302 304 303 302 304 308 309 305 306 313 321 323 322 324 329 336 337 334 332 334 337 335 330 325
189 189 188 190 194 194 195 199 202 201 201 205 206 200 197 202 207 207 206 207 209 212 213 213 214 214 213 214 217 218 218 221 224 220 216 218 219 208 196 201 214 220 219 221 225 228 231 235 234 227 221 218 222 238 256 265 272 280 285 288 291 294 297 299 301 302 304 306 307 306 305 307 309 311 312 315 319 324 327 329 329 332 337 338 331 324 321
191 192 191 192 197 200 201 203 207 206 203 205 207 204 199 200 205 208 208 208 211 213 213 213 213 214 213 215 220 222 222 227 234 230 206 201 216 223 208 194 205 219 222 218 223 227 228 229 230 224 217 217 228 244 257 267 276 282 286 288 291 292 294 296 300 303 304 304 302 300 299 300 303 306 308 310 313 315 316 319 324 329 332 331 325 320 319
190 193 194 195 200 203 204 204 206 207 206 207 209 207 202 202 205 208 209 209 211 213 214 214 214 215 215 216 218 222 224 226 230 233 220 209 217 225 217 201 200 206 214 227 233 221 208 210 221 224 219 219 235 252 262 269 277 282 287 291 291 290 292 293 293 291 290 291 291 291 290 291 296 300 300 300 302 304 306 310 315 318 320 321 322 325 329
192 195 198 199 202 204 205 205 206 207 208 209 209 208 206 205 206 208 209 210 211 214 216 216 216 216 216 216 217 220 223 223 222 221 224 227 225 218 210 203 195 189 199 222 234 221 202 203 214 219 219 224 238 249 256 268 279 282 286 290 289 287 289 292 292 290 290 292 292 289 285 286 290 293 292 292 294 297 297 300 306 310 314 317 321 327 331
196 199 200 202 203 204 205 206 208 210 211 211 211 211 209 208 209 210 209 208 209 213 217 219 219 217 216 216 218 219 219 218 215 212 215 222 224 215 204 202 202 199 202 214 226 229 218 202 193 194 205 228 246 253 259 273 283 281 280 282 283 285 289 292 290 289 293 297 295 289 285 286 291 293 294 294 296 295 294 295 299 302 305 308 313 319 322